Regional Weather Roundup
Issued by NWS

Home | Current Version | Previous Version | Graphics & Text | Print | Product List | Glossary On
Versions: 1 2 3 4 5 6 7 8 9 10 11 12 13 14 15 16 17 18 19 20 21 22 23 24 25 26 27 28 29 30 31 32 33 34 35 36 37 38 39 40 41 42 43 44 45 46 47 48 49 50
750
ASUS43 KBIS 021910
RWRND

NORTH DAKOTA REGIONAL WEATHER ROUNDUP
NATIONAL WEATHER SERVICE BISMARCK ND
200 PM CDT MON MAY 02 2016

NOTE: "FAIR" INDICATES FEW OR NO CLOUDS BELOW 12,000 FEET WITH NO
SIGNIFICANT WEATHER AND/OR OBSTRUCTIONS TO VISIBILITY.


NDZ001>003-009>011-017-022000-
NORTHWEST NORTH DAKOTA

CITY           SKY/WX    TMP DP  RH WIND       PRES   REMARKS
WILLISTON      SUNNY     72  32  23 N16G25    30.02F
MINOT          MOSUNNY   72  37  28 N10G23    29.99S
MINOT AFB      MOSUNNY   66  38  35 N9        29.98F
$$

NDZ018>021-031>035-040>046-022000-
SOUTHWEST NORTH DAKOTA

CITY           SKY/WX    TMP DP  RH WIND       PRES   REMARKS
BISMARCK       SUNNY     62  48  60 S9        29.99F
DICKINSON      MOSUNNY   68  32  26 N22G35    29.96F
GARRISON         N/A     67  37  33 NE13G18   29.98R
HETTINGER ARPT PTSUNNY   65  34  31 NW20G30   29.99F
$$

NDZ004>008-012>016-024-026-027-054-022000-
NORTHEAST NORTH DAKOTA

CITY           SKY/WX    TMP DP  RH WIND       PRES   REMARKS
GRAND FORKS    MOSUNNY   70  30  22 E13       29.98F
GRND FRKS AFB  MOSUNNY   69  29  22 E9        29.99F
DEVILS LAKE    SUNNY     63  36  36 S10       30.01F
$$

NDZ022-023-025-028>030-036>039-047>053-022000-
SOUTHEAST NORTH DAKOTA

CITY           SKY/WX    TMP DP  RH WIND       PRES   REMARKS
FARGO          SUNNY     69  27  20 MISG      29.99F
JAMESTOWN      MOSUNNY   59  41  51 SW12      30.01F
$$





USA.gov is the U.S. government's official web portal to all federal, state and local government web resources and services.